Погода в Деръа

Сирия     32°37′05″N   36°06′18″E
темп.,
°C
ветер,
м/с
пор.,
м/с
влажн.,
%
обл.,
%
осадки,
мм/ч
давл.,
гПа
погр.,
м
23 апреля, пт
пт2300:00+13сз22361 0.0 101815
03:00+12сз224322 0.0 101714
06:00+11сз11453 0.0 101812
09:00+18ссв22360 0.0 1018253
12:00+26вюв12160 0.0 1016809
15:00+30всв12130 0.0 10131720
18:00+27сз651942 0.0 1013467
21:00+21зсз33358 0.0 101423
24 апреля, сб
сб2400:00+19св123610 0.0 101313
03:00+18зсз013286 0.0 101211
06:00+19св1130100 0.0 101212
09:00+25всв23242 0.0 1012465
12:00+31юв710154 0.0 10102079
15:00+33ююв66122 0.0 10073232
18:00+28зсз672969 0.0 1007274
21:00+22сз33386 0.0 100933
25 апреля, вс
вс2500:00+21зсз333616 0.0 100918
03:00+19зсз11450 0.0 100912
06:00+17сз11490 0.0 100811
09:00+24сз21300 0.0 1009364
12:00+30сз23215 0.0 10081185
15:00+32з66185 0.0 10061950
18:00+26з66392 0.0 1007540
21:00+22з22480 0.0 100816
26 апреля, пн
пн2600:00+20ю11402 0.0 100711
03:00+21ю3335100 0.0 100613
06:00+18з224146 0.0 100614
09:00+21з68435 0.0 1008535
12:00+24з910390 0.0 10091096
15:00+22з1213410 0.0 10091168
18:00+18з910550 0.0 1010794
21:00+13з5108623 0.0 1012568
27 апреля, вт
вт2700:00+14з8107984 0.0 1012773
03:00+14з8117861 0.1 1012702
06:00+12з6108641 0.0 1013416
09:00+16з68651 0.0 1014683
12:00+21з77480 0.0 1013987
15:00+23зсз99400 0.0 10121351
18:00+20зсз910510 0.0 1013670
21:00+15зюз33720 0.0 101531